Change the Weather History Date:

Sunday, October 23, 2011

  Actual Average Record
Temperature  
Mean Temperature 42 °F -  
Max Temperature 59 °F 54 °F 80 °F (1963)
Min Temperature 28 °F 33 °F 14 °F (1976)
Degree Days  
Heating Degree Days 22    
Moisture  
Dew Point 39 °F    
Average Humidity 82    
Maximum Humidity 97    
Minimum Humidity 58    
Precipitation  
Precipitation 0.24 in - - ()
Sea Level Pressure  
Sea Level Pressure 29.82 in    
Wind  
Wind Speed 5 mph (WSW)    
Max Wind Speed 12 mph    
Max Gust Speed 18 mph    
Visibility 8 miles    
Events Rain    
Averages and records for this station are not official NWS values.
T = Trace of Precipitation, MM = Missing Value Source: NWS Daily Summary

Daily Weather History Graph

Daily Weather History Graph

Search for Another Location

Airport or City:

Trip Planner

Search our weather history database for the weather conditions in past years. The results will help you decide how hot, cold, wet, or windy it might be!

Date:

Astronomy

Oct. 23, 2011 Rise Set
Actual Time 7:32 AM CDT 6:03 PM CDT
Civil Twilight 7:01 AM CDT 6:34 PM CDT
Nautical Twilight 6:25 AM CDT 7:09 PM CDT
Astronomical Twilight 5:51 AM CDT 7:44 PM CDT
Moon 3:27 AM CDT (10/23) 4:03 PM CDT (10/23)
Length of Visible Light 11h 32m
Length of Day
10h 31m
Waning Crescent, 14% of the Moon is Illuminated
Oct 23
Waning Crescent
Oct 26
New
Nov 2
First Quarter
Nov 10
Full
Nov 18
Last Quarter

Hourly Weather History & Observations

Time (CDT) Temp. Windchill Dew Point Humidity Pressure Visibility Wind Dir Wind Speed Gust Speed Precip Events Conditions
12:53 AM 28.9 °F 23.9 °F 27.0 °F 92% 29.96 in 10.0 mi South 4.6 mph - N/A   Clear
1:53 AM 30.0 °F - 28.9 °F 96% 29.94 in 10.0 mi Calm Calm - N/A   Clear
2:53 AM 37.0 °F 33.3 °F 30.9 °F 79% 29.91 in 10.0 mi SSW 4.6 mph - N/A   Clear
3:53 AM 34.0 °F - 30.0 °F 85% 29.90 in 10.0 mi Calm Calm - N/A   Partly Cloudy
4:53 AM 39.0 °F 35.7 °F 32.0 °F 76% 29.88 in 10.0 mi SSW 4.6 mph - N/A   Partly Cloudy
5:53 AM 44.1 °F 40.8 °F 33.1 °F 65% 29.86 in 10.0 mi South 5.8 mph - N/A   Overcast
6:53 AM 43.0 °F 38.8 °F 36.0 °F 76% 29.86 in 10.0 mi South 6.9 mph - 0.00 in   Overcast
7:53 AM 45.0 °F 42.6 °F 34.0 °F 65% 29.84 in 10.0 mi South 4.6 mph - N/A   Clear
9:36 AM 48.2 °F - 37.4 °F 66% 29.80 in 10.0 mi SSW 9.2 mph - N/A   Mostly Cloudy
9:53 AM 48.9 °F - 37.9 °F 66% 29.82 in 10.0 mi SSW 9.2 mph - N/A   Scattered Clouds
12:53 PM 55.9 °F - 43.0 °F 62% 29.77 in 10.0 mi WSW 11.5 mph 18.4 mph N/A   Partly Cloudy
1:53 PM 57.9 °F - 43.0 °F 58% 29.74 in 10.0 mi Variable 4.6 mph - N/A   Mostly Cloudy
2:53 PM 55.9 °F - 43.0 °F 62% 29.74 in 10.0 mi West 9.2 mph - N/A   Overcast
3:44 PM 50.0 °F - 46.4 °F 87% 29.73 in 2.5 mi WNW 4.6 mph - 0.04 in Rain Light Rain
3:53 PM 50.0 °F - 46.9 °F 89% 29.76 in 4.0 mi West 3.5 mph - 0.05 in Rain Light Rain
4:26 PM 48.2 °F - 46.4 °F 93% 29.75 in 2.5 mi West 9.2 mph - 0.05 in Rain Rain
4:53 PM 48.0 °F - 46.9 °F 96% 29.78 in 3.0 mi West 8.1 mph - 0.12 in Rain Rain
5:13 PM 48.2 °F - 46.4 °F 93% 29.76 in 2.5 mi WNW 9.2 mph - 0.04 in Rain Light Rain
5:20 PM 46.4 °F 41.5 °F 44.6 °F 93% 29.77 in 4.0 mi NW 10.4 mph - 0.05 in Rain Light Rain
5:53 PM 46.9 °F - 45.0 °F 93% 29.80 in 9.0 mi WNW 4.6 mph - 0.07 in Rain Light Rain
7:53 PM 43.0 °F 39.5 °F 42.1 °F 97% 29.83 in 10.0 mi SW 5.8 mph - N/A   Clear
9:53 PM 41.0 °F 36.4 °F 39.9 °F 96% 29.84 in 10.0 mi WSW 6.9 mph - N/A   Clear
10:53 PM 41.0 °F 35.8 °F 39.9 °F 96% 29.84 in 10.0 mi WSW 8.1 mph - N/A   Clear